DateTimeUTC,F1_A11,F1_S11,BsB_S11,BsG_S11,BsR_S11,BbsB_S11,BbsG_S11,BbsR_S11,BaB_A11,BaG_A11,BaR_A11,Tu_S11,T_S11,Uu_S11,U_S11,P_S11,T1_A11
2021-07-25T23:00:00Z,00000200,20000000,,,,,,,0000.24,0000.28,0000.07,19.0,26.0,05.5,03.6,0673.3,31.1
2021-07-25T23:01:00Z,00000200,20000000,,,,,,,-000.11,-000.09,-000.16,19.0,26.0,05.4,03.5,0673.3,31.1
2021-07-25T23:02:00Z,00000200,20000000,,,,,,,0000.06,-000.01,0000.29,19.0,26.0,05.4,03.5,0673.3,31.1
2021-07-25T23:03:00Z,00000200,60000000,,,,,,,-000.02,0000.07,0000.02,19.0,26.0,05.4,03.5,0673.3,31.1
2021-07-25T23:04:00Z,00000200,40000000,-000.05,0000.16,0000.27,0000.07,0000.12,0000.41,-000.35,-000.27,-000.27,19.1,25.8,05.5,03.6,0674.2,31.1
2021-07-25T23:05:00Z,00000200,00000000,0000.70,0000.15,-000.01,-000.43,0000.05,0000.16,0000.51,0000.34,0000.12,19.1,25.7,05.3,03.6,0674.3,31.1
2021-07-25T23:06:00Z,00000200,00000000,0000.78,0000.20,-000.04,-000.39,0000.13,0000.04,-000.10,-000.24,-000.07,19.1,25.7,05.4,03.6,0674.3,31.1
2021-07-25T23:07:00Z,00000200,00000000,0000.29,0000.52,0000.18,0000.34,0000.09,0000.08,-000.25,0000.05,-000.11,19.1,25.7,05.3,03.6,0674.3,31.1
2021-07-25T23:08:00Z,00000200,00000000,0000.60,0000.48,0000.39,-000.26,0000.24,0000.27,0000.14,0000.27,0000.15,19.1,25.7,05.2,03.5,0674.3,31.1
2021-07-25T23:09:00Z,00000200,00000000,0000.32,0000.18,0000.20,0000.24,0000.17,-000.10,-000.23,-000.31,-000.39,19.1,25.7,05.4,03.6,0674.3,31.1
2021-07-25T23:10:00Z,00000200,00000000,0000.49,0000.32,0000.01,0000.05,0000.39,-000.28,0000.10,0000.10,0000.26,19.1,25.7,05.3,03.6,0674.3,31.1
2021-07-25T23:11:00Z,00000200,00000000,0000.48,0000.52,0000.15,0000.44,0000.16,-000.03,-000.01,-000.41,0000.03,19.1,25.6,05.2,03.5,0674.3,31.1
2021-07-25T23:12:00Z,00000200,00000000,0000.71,-000.03,-000.02,-000.10,0000.05,-000.36,-000.21,0000.14,0000.10,19.1,25.6,05.1,03.4,0674.3,31.1
2021-07-25T23:13:00Z,00000200,00000000,0000.88,0000.28,0000.20,0000.54,-000.05,-000.01,0000.35,0000.28,-000.28,19.1,25.6,05.1,03.4,0674.3,31.1
2021-07-25T23:14:00Z,00000200,00000000,0000.79,0000.05,0000.05,-000.13,0000.26,-000.04,0000.14,-000.09,0000.17,19.1,25.6,05.2,03.5,0674.3,31.1
2021-07-25T23:15:00Z,00000200,00000000,0001.24,0000.53,0000.10,-000.16,0000.58,-000.24,0000.24,0000.36,-000.08,19.1,25.6,05.0,03.4,0674.3,31.1
2021-07-25T23:16:00Z,00000200,00000000,0000.37,0000.34,-000.01,-000.28,0000.33,-000.10,-000.17,-000.41,0000.10,19.1,25.6,05.1,03.4,0674.3,31.1
2021-07-25T23:17:00Z,00000200,00000000,0000.11,0000.37,0000.14,0000.06,0000.43,0000.22,-000.06,0000.51,0000.14,19.1,25.6,05.0,03.3,0674.3,31.1
2021-07-25T23:18:00Z,00000200,00000000,0000.89,0000.39,0000.02,-000.22,0000.14,0000.01,0000.08,-000.55,-000.19,19.1,25.6,05.2,03.5,0674.4,31.1
2021-07-25T23:19:00Z,00000200,00000000,0000.78,0000.29,-000.11,-000.07,-000.08,0000.06,0000.22,0000.50,0000.19,19.0,25.6,05.1,03.4,0674.4,31.1
2021-07-25T23:20:00Z,00000200,00000000,0000.20,0000.40,0000.08,0000.10,0000.23,0000.06,-000.05,-000.16,-000.02,19.0,25.6,05.1,03.4,0674.4,31.1
2021-07-25T23:21:00Z,00000200,00000000,0000.17,0000.52,0000.30,0000.25,0000.07,0000.08,-000.13,-000.10,0000.02,19.0,25.5,05.1,03.4,0674.4,31.1
2021-07-25T23:22:00Z,00000200,00000000,0000.80,0000.60,0000.22,-000.09,0000.21,0000.04,0000.35,0000.19,0000.00,19.0,25.5,05.1,03.4,0674.4,31.1
2021-07-25T23:23:00Z,00000200,00000000,0000.56,0000.40,0000.30,0000.12,0000.22,0000.13,0000.47,0000.35,0000.54,19.0,25.5,05.2,03.5,0674.4,31.1
2021-07-25T23:24:00Z,00000200,00000000,0000.95,0000.16,-000.09,0000.26,0000.25,0000.12,-000.30,-000.14,-000.33,19.0,25.5,05.2,03.5,0674.3,31.1
2021-07-25T23:25:00Z,00000200,00000000,0000.63,0000.10,0000.21,-000.02,0000.27,-000.05,0000.14,0000.34,0000.08,19.0,25.5,05.3,03.5,0674.3,31.1
2021-07-25T23:26:00Z,00000200,00000000,0000.40,-000.02,0000.29,-000.47,0000.24,0000.04,0000.36,0000.23,0000.02,19.0,25.5,05.2,03.5,0674.4,31.1
2021-07-25T23:27:00Z,00000200,00000000,0000.90,0000.27,0000.13,0000.12,0000.18,-000.02,0000.14,-000.13,0000.44,19.0,25.5,05.1,03.5,0674.3,31.1
2021-07-25T23:28:00Z,00000200,00000000,0001.24,0000.52,0000.29,-000.46,0000.10,-000.13,-000.05,0000.21,0000.00,19.0,25.5,05.2,03.5,0674.3,31.1
2021-07-25T23:29:00Z,00000200,00000000,0000.90,0000.21,-000.17,-000.56,0000.21,-000.12,0000.19,0000.15,-000.32,19.0,25.5,05.2,03.5,0674.3,31.1
2021-07-25T23:30:00Z,00000200,00000000,0001.17,0000.24,0000.43,0000.65,0000.13,-000.02,-000.27,0000.02,0000.10,19.0,25.5,05.2,03.5,0674.3,31.1
2021-07-25T23:31:00Z,00000200,00000000,0001.11,0000.16,-000.27,-000.40,0000.18,-000.15,-000.03,0000.16,-000.09,19.1,25.5,05.1,03.4,0674.3,31.2
2021-07-25T23:32:00Z,00000200,00000000,0000.21,0000.30,0000.07,0000.09,0000.41,-000.30,0000.54,-000.24,0000.26,19.1,25.5,05.2,03.5,0674.3,31.1
2021-07-25T23:33:00Z,00000200,00000000,0000.89,0000.18,-000.09,-000.08,0000.33,-000.06,-000.09,0000.27,0000.10,19.1,25.5,05.2,03.5,0674.3,31.1
2021-07-25T23:34:00Z,00000200,00000000,0000.80,0000.61,0000.25,0000.14,0000.39,-000.04,0000.06,-000.45,-000.10,19.1,25.6,05.1,03.5,0674.3,31.1
2021-07-25T23:35:00Z,00000200,00000000,0000.07,0000.60,-000.03,-000.44,-000.00,0000.28,-000.09,0000.53,0000.32,19.1,25.6,05.2,03.5,0674.3,31.1
2021-07-25T23:36:00Z,00000200,00000000,0000.26,0000.45,0000.08,0000.24,0000.25,0000.31,0000.42,0000.26,0000.02,19.1,25.5,05.2,03.5,0674.3,31.1
2021-07-25T23:37:00Z,00000200,00000000,0000.39,0000.32,-000.08,0000.54,0000.39,-000.11,-000.07,0000.10,-000.00,19.1,25.5,05.2,03.5,0674.3,31.1
2021-07-25T23:38:00Z,00000200,00000000,0000.85,0000.03,0000.22,-000.22,0000.36,-000.01,0000.36,-000.12,-000.06,19.1,25.5,05.2,03.5,0674.3,31.1
2021-07-25T23:39:00Z,00000200,00000000,0001.25,0000.12,0000.18,0000.31,0000.53,0000.29,-000.47,0000.11,-000.05,19.0,25.5,05.3,03.6,0674.3,31.1
2021-07-25T23:40:00Z,00000200,00000000,0000.90,0000.38,-000.18,0000.01,0000.39,-000.06,0000.27,0000.01,0000.62,19.0,25.5,05.2,03.5,0674.3,31.1
2021-07-25T23:41:00Z,00000200,00000000,0000.37,0000.20,0000.34,-000.52,0000.39,0000.06,-000.00,0000.04,-000.50,19.0,25.5,05.2,03.5,0674.4,31.1
2021-07-25T23:42:00Z,00000200,00000000,0000.81,0000.35,0000.07,-000.17,-000.00,0000.10,0000.10,0000.04,0000.30,19.0,25.5,05.2,03.5,0674.4,31.1
2021-07-25T23:43:00Z,00000200,00000000,0000.86,0000.37,0000.19,-000.13,0000.17,-000.18,0000.10,0000.44,0000.30,19.0,25.4,05.2,03.5,0674.4,31.1
2021-07-25T23:44:00Z,00000200,00000000,0001.08,0000.09,0000.07,-000.04,-000.03,-000.07,0000.26,-000.06,-000.60,19.0,25.4,05.1,03.5,0674.4,31.1
2021-07-25T23:45:00Z,00000200,00000000,0000.60,0000.13,-000.09,0000.02,0000.14,-000.33,0000.02,0000.01,0000.34,19.0,25.5,05.1,03.5,0674.4,31.1
2021-07-25T23:46:00Z,00000200,00000000,0001.28,0000.39,-000.24,-000.21,0000.33,-000.05,0000.04,-000.20,0000.33,19.1,25.5,05.1,03.4,0674.4,31.1
2021-07-25T23:47:00Z,00000200,00000000,0000.62,-000.01,0000.19,0000.43,0000.43,-000.30,-000.09,0000.19,-000.27,19.1,25.5,05.1,03.5,0674.4,31.1
2021-07-25T23:48:00Z,00000200,00000000,0000.03,0000.36,0000.01,0000.60,0000.21,0000.07,-000.07,-000.33,-000.10,19.1,25.5,05.1,03.4,0674.4,31.2
2021-07-25T23:49:00Z,00000200,00000000,0000.07,0000.34,-000.10,0000.13,0000.13,0000.05,-000.19,0000.36,0000.15,19.1,25.5,05.1,03.5,0674.4,31.1
2021-07-25T23:50:00Z,00000200,00000000,0000.42,0000.49,0000.15,-000.23,0000.33,-000.01,0000.19,-000.35,-000.35,19.1,25.5,05.0,03.4,0674.4,31.1
2021-07-25T23:51:00Z,00000200,00000000,0000.76,0000.43,0000.38,-000.47,0000.13,-000.04,-000.08,-000.02,0000.36,19.1,25.5,04.9,03.3,0674.4,31.1
2021-07-25T23:52:00Z,00000200,00000000,0000.94,0000.32,0000.13,0000.09,0000.06,-000.11,-000.08,0000.13,-000.03,19.0,25.4,04.8,03.3,0674.4,31.1
2021-07-25T23:53:00Z,00000200,00000000,0001.21,0000.23,0000.29,-000.55,0000.12,0000.09,0000.02,-000.16,-000.21,19.0,25.5,04.8,03.3,0674.4,31.1
2021-07-25T23:54:00Z,00000200,00000000,0000.86,0000.43,0000.20,-000.11,0000.25,0000.30,-000.01,-000.41,-000.15,19.0,25.4,04.8,03.2,0674.5,31.1
2021-07-25T23:55:00Z,00000200,00000000,0000.53,0000.48,-000.10,-000.24,0000.31,-000.13,-000.38,0000.30,-000.24,19.0,25.4,04.7,03.2,0674.4,31.1
2021-07-25T23:56:00Z,00000200,00000000,0000.65,-000.01,0000.26,-000.18,0000.05,0000.26,0000.50,0000.29,0000.24,19.0,25.4,04.7,03.2,0674.4,31.1
2021-07-25T23:57:00Z,00000200,40000000,,,,,,,0000.38,0000.02,0000.14,19.0,25.5,04.5,03.0,0674.4,31.1
2021-07-25T23:58:00Z,00000200,60000000,,,,,,,-000.41,-000.42,-000.44,18.7,25.6,04.8,03.1,0673.4,31.1
2021-07-25T23:59:00Z,00000200,20000000,,,,,,,-000.02,0000.07,0000.35,18.7,25.7,04.9,03.2,0673.4,31.1
